2023/09/04 00:00:00, 0.0,21.2
2023/09/04 00:10:00, 0.0,21.2
2023/09/04 00:20:00, 0.0,21.0
2023/09/04 00:30:00, 0.0,20.7
2023/09/04 00:40:00, 0.0,20.8
2023/09/04 00:50:00, 0.0,20.8
2023/09/04 01:00:00, 0.0,20.5
2023/09/04 01:10:00, 0.0,20.6
2023/09/04 01:20:00, 0.0,20.5
2023/09/04 01:30:00, 0.0,20.5
2023/09/04 01:40:00, 0.0,20.7
2023/09/04 01:50:00, 0.0,20.5
2023/09/04 02:00:00, 1.1,20.5
2023/09/04 02:10:00, 9.2,20.4
2023/09/04 02:20:00,11.0,20.2
2023/09/04 02:30:00,10.4,20.5
2023/09/04 02:40:00,12.5,20.3
2023/09/04 02:50:00,12.9,20.3
2023/09/04 03:00:00,13.6,20.1
2023/09/04 03:10:00,13.8,20.1
2023/09/04 03:20:00,13.8,20.4
2023/09/04 03:30:00,13.9,20.0
2023/09/04 03:40:00,13.7,20.0
2023/09/04 03:50:00,13.2,19.9
2023/09/04 04:00:00,12.8,19.9
2023/09/04 04:10:00,12.4,19.8
2023/09/04 04:20:00,12.6,19.7
2023/09/04 04:30:00,11.9,19.8
2023/09/04 04:40:00,11.2,19.8
2023/09/04 04:50:00,10.3,19.5
2023/09/04 05:00:00,10.1,19.7
2023/09/04 05:10:00,10.3,19.7
2023/09/04 05:20:00, 9.8,19.7
2023/09/04 05:30:00, 9.5,19.6
2023/09/04 05:40:00, 9.3,19.7
2023/09/04 05:50:00, 9.3,19.7
2023/09/04 06:00:00, 9.6,19.7
2023/09/04 06:10:00,10.1,19.7
2023/09/04 06:20:00,10.4,20.0
2023/09/04 06:30:00,11.3,20.1
2023/09/04 06:40:00,12.2,20.3
2023/09/04 06:50:00,12.0,20.8
2023/09/04 07:00:00,12.6,20.8
2023/09/04 07:10:00,12.9,21.2
2023/09/04 07:20:00,13.3,21.4
2023/09/04 07:30:00,13.7,21.8
2023/09/04 07:40:00,14.2,22.3
2023/09/04 07:50:00,14.2,23.3
2023/09/04 08:00:00,14.5,23.3
2023/09/04 08:10:00,14.8,23.6
2023/09/04 08:20:00,15.3,24.5
2023/09/04 08:30:00,15.7,25.2
2023/09/04 08:40:00,16.1,25.7
2023/09/04 08:50:00,16.4,25.6
2023/09/04 09:00:00,16.7,26.0
2023/09/04 09:10:00,15.8,26.4
2023/09/04 09:20:00,---,27.6
2023/09/04 09:30:00, 8.2,27.7
2023/09/04 09:40:00, 8.0,27.4
2023/09/04 09:50:00,12.5,27.5
2023/09/04 10:00:00,17.7,28.6
2023/09/04 10:10:00,16.8,29.8
2023/09/04 10:20:00,15.1,30.8
2023/09/04 10:30:00,15.4,29.9
2023/09/04 10:40:00,15.4,29.8
2023/09/04 10:50:00,---,30.3
2023/09/04 11:00:00, 0.0,31.2
2023/09/04 11:10:00,---,30.6
2023/09/04 11:20:00,13.8,30.8
2023/09/04 11:30:00,14.1,30.2
2023/09/04 11:40:00, 0.0,31.5
2023/09/04 11:50:00, 0.0,32.2
2023/09/04 12:00:00, 0.0,32.2
2023/09/04 12:10:00,---,31.5
2023/09/04 12:20:00,---,31.0
2023/09/04 12:30:00, 0.0,31.1
2023/09/04 12:40:00, 0.0,32.2
2023/09/04 12:50:00, 0.0,33.3
2023/09/04 13:00:00, 0.0,33.5
2023/09/04 13:10:00, 1.2,32.4
2023/09/04 13:20:00,---,31.7
2023/09/04 13:30:00,---,32.0
2023/09/04 13:40:00, 0.0,32.4
2023/09/04 13:50:00,---,32.8
2023/09/04 14:00:00,---,32.7
2023/09/04 14:10:00, 4.2,31.9
2023/09/04 14:20:00, 0.0,32.9
2023/09/04 14:30:00, 0.0,33.2
2023/09/04 14:40:00,13.6,32.9
2023/09/04 14:50:00,---,33.1
2023/09/04 15:00:00,12.6,31.7
2023/09/04 15:10:00,14.7,31.9
2023/09/04 15:20:00,---,31.3
2023/09/04 15:30:00,15.1,31.2
2023/09/04 15:40:00,---,32.0
2023/09/04 15:50:00,16.1,30.6
2023/09/04 16:00:00,16.6,30.7
2023/09/04 16:10:00,16.4,30.1
2023/09/04 16:20:00,16.2,29.0
2023/09/04 16:30:00,16.3,29.0
2023/09/04 16:40:00,17.2,28.9
2023/09/04 16:50:00,16.9,28.9
2023/09/04 17:00:00,17.3,29.3
2023/09/04 17:10:00,17.7,29.1
2023/09/04 17:20:00,17.8,28.9
2023/09/04 17:30:00,19.2,28.3
2023/09/04 17:40:00,18.3,27.8
2023/09/04 17:50:00,18.1,27.7
2023/09/04 18:00:00,17.6,27.7
2023/09/04 18:10:00,17.4,27.1
2023/09/04 18:20:00,16.7,26.3
2023/09/04 18:30:00,14.2,26.5
2023/09/04 18:40:00, 2.7,26.3
2023/09/04 18:50:00, 0.0,26.3
2023/09/04 19:00:00, 0.0,26.0
2023/09/04 19:10:00, 0.0,25.7
2023/09/04 19:20:00, 0.0,25.5
2023/09/04 19:30:00, 0.0,25.5
2023/09/04 19:40:00, 0.0,25.3
2023/09/04 19:50:00, 0.0,25.4
2023/09/04 20:00:00, 0.0,25.3
2023/09/04 20:10:00, 0.0,25.2
2023/09/04 20:20:00, 0.0,25.1
2023/09/04 20:30:00, 0.0,25.1
2023/09/04 20:40:00, 0.0,25.0
2023/09/04 20:50:00, 0.0,24.9
2023/09/04 21:00:00, 0.0,24.8
2023/09/04 21:10:00, 0.0,24.5
2023/09/04 21:20:00, 0.0,24.4
2023/09/04 21:30:00, 0.0,24.3
2023/09/04 21:40:00, 0.0,24.2
2023/09/04 21:50:00, 0.0,24.2
2023/09/04 22:00:00, 0.0,23.8
2023/09/04 22:10:00, 0.0,24.3
2023/09/04 22:20:00, 0.0,24.2
2023/09/04 22:30:00, 0.0,24.0
2023/09/04 22:40:00, 0.0,24.0
2023/09/04 22:50:00, 0.0,23.9
2023/09/04 23:00:00, 2.0,24.0
2023/09/04 23:10:00, 6.9,24.0
2023/09/04 23:20:00, 9.2,23.9
2023/09/04 23:30:00,10.3,23.9
2023/09/04 23:40:00,11.2,23.8
2023/09/04 23:50:00,11.8,24.0
